Time,TemperatureF,DewpointF,PressureIn,WindDirection,WindDirectionDegrees,WindSpeedMPH,WindSpeedGustMPH,Humidity,HourlyPrecipIn,Conditions,Clouds,dailyrainin,SoftwareType,DateUTC
2017-09-21 00:00:00,64.2,62.7,30.01,NW,312,0.0,0.0,95,0.00,,,0.00,Wunderground v.1.15,2017-09-21 04:00:00,
2017-09-21 00:10:00,64.1,62.6,30.01,NW,312,0.0,0.0,95,0.00,,,0.00,Wunderground v.1.15,2017-09-21 04:10:00,
2017-09-21 00:20:00,63.9,62.4,30.01,NW,312,0.0,0.0,95,0.00,,,0.00,Wunderground v.1.15,2017-09-21 04:20:00,
2017-09-21 00:30:00,63.8,62.3,30.01,NW,312,0.0,0.0,95,0.00,,,0.00,Wunderground v.1.15,2017-09-21 04:30:00,
2017-09-21 00:35:00,63.6,62.1,30.01,NW,312,0.0,0.0,95,0.00,,,0.00,Wunderground v.1.15,2017-09-21 04:35:00,
2017-09-21 00:45:00,63.4,61.9,30.01,NW,312,0.0,0.0,95,0.00,,,0.00,Wunderground v.1.15,2017-09-21 04:45:00,
2017-09-21 00:50:00,63.3,61.8,30.01,NW,312,0.0,0.0,95,0.00,,,0.00,Wunderground v.1.15,2017-09-21 04:50:00,
2017-09-21 01:00:00,63.2,61.7,30.01,NW,312,0.0,0.0,95,0.00,,,0.00,Wunderground v.1.15,2017-09-21 05:00:00,
2017-09-21 01:05:00,63.1,61.6,30.01,NW,312,0.0,0.0,95,0.00,,,0.00,Wunderground v.1.15,2017-09-21 05:05:00,
2017-09-21 01:15:00,62.9,61.4,30.01,NW,312,0.0,0.0,95,0.00,,,0.00,Wunderground v.1.15,2017-09-21 05:15:00,
2017-09-21 01:20:00,62.8,61.3,30.01,NW,312,0.0,0.0,95,0.00,,,0.00,Wunderground v.1.15,2017-09-21 05:20:00,
2017-09-21 01:30:00,62.7,61.2,30.01,NW,312,0.0,0.0,95,0.00,,,0.00,Wunderground v.1.15,2017-09-21 05:30:00,
2017-09-21 01:35:00,62.6,61.1,30.01,NW,312,0.0,0.0,95,0.00,,,0.00,Wunderground v.1.15,2017-09-21 05:35:00,
2017-09-21 01:45:00,62.5,61.0,30.02,NW,312,0.0,0.0,95,0.00,,,0.00,Wunderground v.1.15,2017-09-21 05:45:00,
2017-09-21 01:50:00,62.5,61.0,30.01,NW,312,0.0,0.0,95,0.00,,,0.00,Wunderground v.1.15,2017-09-21 05:50:00,
2017-09-21 02:00:00,62.2,60.8,30.02,NW,312,0.0,0.0,95,0.00,,,0.00,Wunderground v.1.15,2017-09-21 06:00:00,
2017-09-21 02:05:00,62.2,60.8,30.02,NW,312,0.0,0.0,95,0.00,,,0.00,Wunderground v.1.15,2017-09-21 06:05:00,
2017-09-21 02:15:00,62.0,60.6,30.02,NW,312,0.0,0.0,95,0.00,,,0.00,Wunderground v.1.15,2017-09-21 06:15:00,
2017-09-21 02:25:00,61.8,60.4,30.02,NW,312,0.0,0.0,95,0.00,,,0.00,Wunderground v.1.15,2017-09-21 06:25:00,
2017-09-21 02:30:00,61.7,60.3,30.02,NW,312,0.0,0.0,95,0.00,,,0.00,Wunderground v.1.15,2017-09-21 06:30:00,
2017-09-21 02:40:00,61.6,60.2,30.02,NW,312,0.0,0.0,95,0.00,,,0.00,Wunderground v.1.15,2017-09-21 06:40:00,
2017-09-21 02:45:00,61.4,60.0,30.02,NW,312,0.0,0.0,95,0.00,,,0.00,Wunderground v.1.15,2017-09-21 06:45:00,
2017-09-21 02:55:00,61.2,59.8,30.02,NW,312,0.0,0.0,95,0.00,,,0.00,Wunderground v.1.15,2017-09-21 06:55:00,
2017-09-21 03:00:00,61.2,59.8,30.01,NW,312,0.0,0.0,95,0.00,,,0.00,Wunderground v.1.15,2017-09-21 07:00:00,
2017-09-21 03:10:00,61.1,59.7,30.01,NW,312,0.0,0.0,95,0.00,,,0.00,Wunderground v.1.15,2017-09-21 07:10:00,
2017-09-21 03:20:00,61.0,59.9,30.01,NW,312,0.0,0.0,96,0.00,,,0.00,Wunderground v.1.15,2017-09-21 07:20:00,
2017-09-21 03:25:00,60.9,59.5,30.01,NW,312,0.0,0.0,95,0.00,,,0.00,Wunderground v.1.15,2017-09-21 07:25:00,
2017-09-21 03:35:00,60.8,59.4,30.01,NW,312,0.0,0.0,95,0.00,,,0.00,Wunderground v.1.15,2017-09-21 07:35:00,
2017-09-21 03:40:00,60.7,59.3,30.02,NW,312,0.0,0.0,95,0.00,,,0.00,Wunderground v.1.15,2017-09-21 07:40:00,
2017-09-21 03:50:00,60.6,59.5,30.02,NW,312,0.0,0.0,96,0.00,,,0.00,Wunderground v.1.15,2017-09-21 07:50:00,
2017-09-21 03:55:00,60.5,59.4,30.02,NW,312,0.0,0.0,96,0.00,,,0.00,Wunderground v.1.15,2017-09-21 07:55:00,
2017-09-21 04:05:00,60.4,59.3,30.02,NW,312,0.0,0.0,96,0.00,,,0.00,Wunderground v.1.15,2017-09-21 08:05:00,
2017-09-21 04:10:00,60.4,59.3,30.02,NW,312,0.0,0.0,96,0.00,,,0.00,Wunderground v.1.15,2017-09-21 08:10:00,
2017-09-21 04:20:00,60.2,58.8,30.02,NW,312,0.0,0.0,95,0.00,,,0.00,Wunderground v.1.15,2017-09-21 08:20:00,
2017-09-21 04:30:00,60.2,59.1,30.02,NW,312,0.0,0.0,96,0.00,,,0.00,Wunderground v.1.15,2017-09-21 08:30:00,
2017-09-21 04:40:00,60.0,58.6,30.03,NW,312,0.0,0.0,95,0.00,,,0.00,Wunderground v.1.15,2017-09-21 08:40:00,
2017-09-21 04:45:00,59.9,58.8,30.03,NW,312,0.0,0.0,96,0.00,,,0.00,Wunderground v.1.15,2017-09-21 08:45:00,
2017-09-21 04:50:00,59.8,58.7,30.03,NW,312,0.0,0.0,96,0.00,,,0.00,Wunderground v.1.15,2017-09-21 08:50:00,
2017-09-21 05:00:00,59.8,58.7,30.03,NW,312,0.0,0.0,96,0.00,,,0.00,Wunderground v.1.15,2017-09-21 09:00:00,
2017-09-21 05:05:00,59.8,58.7,30.04,NW,312,0.0,0.0,96,0.00,,,0.00,Wunderground v.1.15,2017-09-21 09:05:00,
2017-09-21 05:15:00,59.7,58.6,30.04,NW,312,0.0,0.0,96,0.00,,,0.00,Wunderground v.1.15,2017-09-21 09:15:00,
2017-09-21 05:20:00,59.6,58.5,30.04,NW,312,0.0,0.0,96,0.00,,,0.00,Wunderground v.1.15,2017-09-21 09:20:00,
2017-09-21 05:30:00,59.6,58.5,30.04,NW,312,0.0,0.0,96,0.00,,,0.00,Wunderground v.1.15,2017-09-21 09:30:00,
2017-09-21 05:40:00,59.7,58.6,30.05,NW,312,0.0,0.0,96,0.00,,,0.00,Wunderground v.1.15,2017-09-21 09:40:00,
2017-09-21 05:45:00,59.7,58.6,30.05,NW,312,0.0,0.0,96,0.00,,,0.00,Wunderground v.1.15,2017-09-21 09:45:00,
2017-09-21 05:55:00,59.9,58.8,30.05,NW,312,0.0,0.0,96,0.00,,,0.00,Wunderground v.1.15,2017-09-21 09:55:00,
2017-09-21 06:00:00,59.9,58.8,30.05,NW,312,0.0,0.0,96,0.00,,,0.00,Wunderground v.1.15,2017-09-21 10:00:00,
2017-09-21 06:10:00,59.7,58.6,30.06,NW,312,0.0,0.0,96,0.00,,,0.00,Wunderground v.1.15,2017-09-21 10:10:00,
2017-09-21 06:15:00,59.7,58.6,30.06,NW,312,0.0,0.0,96,0.00,,,0.00,Wunderground v.1.15,2017-09-21 10:15:00,
2017-09-21 06:25:00,59.6,58.5,30.06,NW,312,0.0,0.0,96,0.00,,,0.00,Wunderground v.1.15,2017-09-21 10:25:00,
2017-09-21 06:30:00,59.7,58.6,30.06,NW,312,0.0,0.0,96,0.00,,,0.00,Wunderground v.1.15,2017-09-21 10:30:00,
2017-09-21 06:40:00,59.6,58.5,30.07,NW,312,0.0,0.0,96,0.00,,,0.00,Wunderground v.1.15,2017-09-21 10:40:00,
2017-09-21 06:50:00,59.7,58.6,30.07,NW,312,0.0,0.0,96,0.00,,,0.00,Wunderground v.1.15,2017-09-21 10:50:00,
2017-09-21 07:00:00,59.6,58.5,30.07,NW,312,0.0,0.0,96,0.00,,,0.00,Wunderground v.1.15,2017-09-21 11:00:00,
2017-09-21 07:10:00,59.6,58.5,30.07,NW,312,0.0,0.0,96,0.00,,,0.00,Wunderground v.1.15,2017-09-21 11:10:00,
2017-09-21 07:15:00,59.6,58.5,30.08,NW,312,0.0,0.0,96,0.00,,,0.00,Wunderground v.1.15,2017-09-21 11:15:00,
2017-09-21 07:25:00,59.8,58.7,30.08,NW,312,0.0,0.0,96,0.00,,,0.00,Wunderground v.1.15,2017-09-21 11:25:00,
2017-09-21 07:30:00,60.0,58.9,30.08,NW,312,0.0,0.0,96,0.00,,,0.00,Wunderground v.1.15,2017-09-21 11:30:00,
2017-09-21 07:40:00,60.2,59.1,30.08,NW,312,0.0,0.0,96,0.00,,,0.00,Wunderground v.1.15,2017-09-21 11:40:00,
2017-09-21 07:45:00,60.3,59.2,30.08,NW,312,0.0,0.0,96,0.00,,,0.00,Wunderground v.1.15,2017-09-21 11:45:00,
2017-09-21 07:55:00,60.7,59.6,30.08,NW,312,0.0,0.0,96,0.00,,,0.00,Wunderground v.1.15,2017-09-21 11:55:00,
2017-09-21 08:00:00,61.2,60.1,30.08,NW,312,0.0,0.0,96,0.00,,,0.00,Wunderground v.1.15,2017-09-21 12:00:00,
2017-09-21 08:10:00,62.3,61.1,30.08,NW,312,0.0,0.0,96,0.00,,,0.00,Wunderground v.1.15,2017-09-21 12:10:00,
2017-09-21 08:15:00,62.8,61.6,30.07,NW,312,0.0,0.0,96,0.00,,,0.00,Wunderground v.1.15,2017-09-21 12:15:00,
2017-09-21 08:25:00,63.8,62.6,30.08,NW,312,0.0,0.0,96,0.00,,,0.00,Wunderground v.1.15,2017-09-21 12:25:00,
2017-09-21 08:30:00,64.3,63.1,30.07,NW,312,0.0,0.0,96,0.00,,,0.00,Wunderground v.1.15,2017-09-21 12:30:00,
2017-09-21 08:40:00,66.3,65.1,30.07,NW,312,0.0,0.0,96,0.00,,,0.00,Wunderground v.1.15,2017-09-21 12:40:00,
2017-09-21 08:50:00,67.5,66.3,30.07,NW,312,0.0,0.0,96,0.00,,,0.00,Wunderground v.1.15,2017-09-21 12:50:00,
2017-09-21 09:00:00,68.3,66.8,30.07,NW,312,0.0,0.0,95,0.00,,,0.00,Wunderground v.1.15,2017-09-21 13:00:00,
2017-09-21 09:10:00,69.4,67.6,30.08,NW,312,0.0,0.0,94,0.00,,,0.00,Wunderground v.1.15,2017-09-21 13:10:00,
2017-09-21 09:15:00,70.3,68.2,30.08,NW,312,0.0,0.0,93,0.00,,,0.00,Wunderground v.1.15,2017-09-21 13:15:00,
2017-09-21 09:25:00,72.4,68.6,30.08,NW,312,0.0,0.0,88,0.00,,,0.00,Wunderground v.1.15,2017-09-21 13:25:00,
2017-09-21 09:30:00,73.7,68.6,30.08,NW,312,0.0,0.0,84,0.00,,,0.00,Wunderground v.1.15,2017-09-21 13:30:00,
2017-09-21 09:40:00,75.3,68.7,30.08,SE,128,0.0,0.0,80,0.00,,,0.00,Wunderground v.1.15,2017-09-21 13:40:00,
2017-09-21 09:45:00,75.8,68.4,30.08,SE,128,0.0,0.0,78,0.00,,,0.00,Wunderground v.1.15,2017-09-21 13:45:00,
2017-09-21 09:55:00,76.7,69.3,30.08,SE,128,0.0,0.0,78,0.00,,,0.00,Wunderground v.1.15,2017-09-21 13:55:00,
2017-09-21 10:00:00,77.2,68.7,30.08,SE,128,0.0,0.0,75,0.00,,,0.00,Wunderground v.1.15,2017-09-21 14:00:00,
2017-09-21 10:10:00,78.4,69.0,30.08,SE,128,0.0,0.0,73,0.00,,,0.00,Wunderground v.1.15,2017-09-21 14:10:00,
2017-09-21 10:20:00,78.5,67.9,30.07,ESE,117,0.0,0.0,70,0.00,,,0.00,Wunderground v.1.15,2017-09-21 14:20:00,
2017-09-21 10:30:00,78.6,68.0,30.07,ESE,117,0.0,0.0,70,0.00,,,0.00,Wunderground v.1.15,2017-09-21 14:30:00,
2017-09-21 10:35:00,78.9,68.3,30.07,ESE,117,0.0,0.0,70,0.00,,,0.00,Wunderground v.1.15,2017-09-21 14:35:00,
2017-09-21 10:45:00,79.0,68.0,30.07,NW,309,0.0,0.0,69,0.00,,,0.00,Wunderground v.1.15,2017-09-21 14:45:00,
2017-09-21 10:55:00,78.8,68.2,30.07,NW,309,0.0,0.0,70,0.00,,,0.00,Wunderground v.1.15,2017-09-21 14:55:00,
2017-09-21 11:00:00,79.2,68.1,30.07,NW,309,0.0,0.0,69,0.00,,,0.00,Wunderground v.1.15,2017-09-21 15:00:00,
2017-09-21 11:10:00,79.9,67.5,30.07,NW,309,0.0,0.0,66,0.00,,,0.00,Wunderground v.1.15,2017-09-21 15:10:00,
2017-09-21 11:15:00,80.5,67.6,30.06,SE,126,0.0,0.0,65,0.00,,,0.00,Wunderground v.1.15,2017-09-21 15:15:00,
2017-09-21 11:25:00,80.7,66.9,30.07,NNW,330,0.0,0.0,63,0.00,,,0.00,Wunderground v.1.15,2017-09-21 15:25:00,
2017-09-21 11:30:00,80.6,66.8,30.07,NW,306,0.0,0.0,63,0.00,,,0.00,Wunderground v.1.15,2017-09-21 15:30:00,
2017-09-21 11:40:00,80.8,67.5,30.07,ENE,77,0.0,0.0,64,0.00,,,0.00,Wunderground v.1.15,2017-09-21 15:40:00,
2017-09-21 11:50:00,81.4,66.2,30.07,NNW,339,0.0,0.0,60,0.00,,,0.00,Wunderground v.1.15,2017-09-21 15:50:00,
2017-09-21 12:00:00,81.5,67.2,30.07,NNW,335,0.0,0.0,62,0.00,,,0.00,Wunderground v.1.15,2017-09-21 16:00:00,
2017-09-21 12:10:00,81.4,67.1,30.06,NW,304,0.0,0.0,62,0.00,,,0.00,Wunderground v.1.15,2017-09-21 16:10:00,
2017-09-21 12:15:00,81.1,67.8,30.06,SSW,202,0.0,0.0,64,0.00,,,0.00,Wunderground v.1.15,2017-09-21 16:15:00,
2017-09-21 12:25:00,81.9,68.1,30.06,ENE,74,0.0,0.0,63,0.00,,,0.00,Wunderground v.1.15,2017-09-21 16:25:00,
2017-09-21 12:30:00,81.7,67.4,30.06,NNW,329,0.0,0.0,62,0.00,,,0.00,Wunderground v.1.15,2017-09-21 16:30:00,
2017-09-21 12:40:00,82.0,67.7,30.06,SSE,155,0.0,0.0,62,0.00,,,0.00,Wunderground v.1.15,2017-09-21 16:40:00,
2017-09-21 12:45:00,82.1,68.7,30.06,SSE,154,0.0,0.0,64,0.00,,,0.00,Wunderground v.1.15,2017-09-21 16:45:00,
2017-09-21 12:55:00,81.9,66.6,30.05,SE,141,0.0,0.0,60,0.00,,,0.00,Wunderground v.1.15,2017-09-21 16:55:00,
2017-09-21 13:00:00,82.1,67.3,30.05,ESE,114,0.0,0.0,61,0.00,,,0.00,Wunderground v.1.15,2017-09-21 17:00:00,
2017-09-21 13:15:00,82.3,68.0,30.05,SE,130,0.0,0.0,62,0.00,,,0.00,Wunderground v.1.15,2017-09-21 17:15:00,
2017-09-21 13:25:00,82.9,68.1,30.04,East,91,0.0,0.0,61,0.00,,,0.00,Wunderground v.1.15,2017-09-21 17:25:00,
2017-09-21 13:30:00,83.3,67.5,30.04,SE,140,0.0,0.0,59,0.00,,,0.00,Wunderground v.1.15,2017-09-21 17:30:00,
2017-09-21 13:40:00,83.5,66.7,30.04,NNW,335,0.0,0.0,57,0.00,,,0.00,Wunderground v.1.15,2017-09-21 17:40:00,
2017-09-21 13:45:00,83.4,66.1,30.04,NNW,333,1.0,1.0,56,0.00,,,0.00,Wunderground v.1.15,2017-09-21 17:45:00,
2017-09-21 13:55:00,83.4,65.0,30.04,ENE,74,1.0,1.0,54,0.00,,,0.00,Wunderground v.1.15,2017-09-21 17:55:00,
2017-09-21 14:00:00,83.5,65.6,30.04,SW,223,1.0,1.0,55,0.00,,,0.00,Wunderground v.1.15,2017-09-21 18:00:00,
2017-09-21 14:10:00,83.7,66.3,30.03,NW,313,1.0,2.0,56,0.00,,,0.00,Wunderground v.1.15,2017-09-21 18:10:00,
2017-09-21 14:15:00,83.4,67.1,30.03,NW,318,1.0,2.0,58,0.00,,,0.00,Wunderground v.1.15,2017-09-21 18:15:00,
2017-09-21 14:25:00,83.5,66.2,30.03,ESE,111,1.0,1.0,56,0.00,,,0.00,Wunderground v.1.15,2017-09-21 18:25:00,
2017-09-21 14:30:00,83.8,65.9,30.03,ESE,102,0.0,0.0,55,0.00,,,0.00,Wunderground v.1.15,2017-09-21 18:30:00,
2017-09-21 14:40:00,83.7,64.8,30.03,NNW,333,1.0,4.0,53,0.00,,,0.00,Wunderground v.1.15,2017-09-21 18:40:00,
2017-09-21 14:45:00,83.4,65.5,30.03,NNW,333,1.0,4.0,55,0.00,,,0.00,Wunderground v.1.15,2017-09-21 18:45:00,
2017-09-21 14:55:00,83.6,65.2,30.02,NW,304,1.0,1.0,54,0.00,,,0.00,Wunderground v.1.15,2017-09-21 18:55:00,
2017-09-21 15:00:00,83.6,65.7,30.03,ENE,71,1.0,1.0,55,0.00,,,0.00,Wunderground v.1.15,2017-09-21 19:00:00,
2017-09-21 15:10:00,83.5,65.6,30.02,WNW,303,1.0,1.0,55,0.00,,,0.00,Wunderground v.1.15,2017-09-21 19:10:00,
2017-09-21 15:20:00,83.1,65.3,30.02,ESE,111,1.0,1.0,55,0.00,,,0.00,Wunderground v.1.15,2017-09-21 19:20:00,
2017-09-21 15:25:00,83.1,64.7,30.02,ESE,111,0.0,1.0,54,0.00,,,0.00,Wunderground v.1.15,2017-09-21 19:25:00,
2017-09-21 15:35:00,83.2,65.9,30.02,NW,318,0.0,1.0,56,0.00,,,0.00,Wunderground v.1.15,2017-09-21 19:35:00,
2017-09-21 15:40:00,83.2,65.9,30.02,NW,321,1.0,1.0,56,0.00,,,0.00,Wunderground v.1.15,2017-09-21 19:40:00,
2017-09-21 15:50:00,83.3,65.4,30.02,SE,127,0.0,0.0,55,0.00,,,0.00,Wunderground v.1.15,2017-09-21 19:50:00,
2017-09-21 15:55:00,83.5,65.6,30.02,SE,129,0.0,2.0,55,0.00,,,0.00,Wunderground v.1.15,2017-09-21 19:55:00,
2017-09-21 16:05:00,83.3,64.4,30.02,NW,321,1.0,1.0,53,0.00,,,0.00,Wunderground v.1.15,2017-09-21 20:05:00,
2017-09-21 16:10:00,83.1,64.7,30.02,NW,321,0.0,0.0,54,0.00,,,0.00,Wunderground v.1.15,2017-09-21 20:10:00,
2017-09-21 16:20:00,83.0,65.7,30.02,East,98,1.0,1.0,56,0.00,,,0.00,Wunderground v.1.15,2017-09-21 20:20:00,
2017-09-21 16:25:00,83.0,64.6,30.02,NE,38,0.0,1.0,54,0.00,,,0.00,Wunderground v.1.15,2017-09-21 20:25:00,
2017-09-21 16:35:00,82.9,65.1,30.02,NW,305,1.0,3.0,55,0.00,,,0.00,Wunderground v.1.15,2017-09-21 20:35:00,
2017-09-21 16:40:00,82.8,65.5,30.02,WNW,303,0.0,0.0,56,0.00,,,0.00,Wunderground v.1.15,2017-09-21 20:40:00,
2017-09-21 16:50:00,82.7,65.9,30.02,NW,304,1.0,1.0,57,0.00,,,0.00,Wunderground v.1.15,2017-09-21 20:50:00,